Regional Weather Roundup
Issued by NWS

Home | Current Version | Previous Version | Text Only | Print | Product List | Glossary On
Versions: 1 2 3 4 5 6 7 8 9 10 11 12 13 14 15 16 17 18 19 20 21 22 23 24 25 26 27 28 29 30 31 32 33 34 35 36 37 38 39 40 41 42 43 44 45 46 47 48 49 50
000
ASUS43 KTOP 290759
RWRKS

WEATHER ROUNDUP FOR KANSAS
NATIONAL WEATHER SERVICE GOODLAND KS
300 AM CDT FRI AUG 29 2014

NOTE:  "FAIR" INDICATES FEW OR NO CLOUDS BELOW 12,000 FEET WITH NO
SIGNIFICANT WEATHER AND/OR OBSTRUCTIONS TO VISIBILITY.

KSZ001>006-013>018-027>032-041>047-290900-
NORTHWEST KANSAS

CITY           SKY/WX    TMP DP  RH WIND       PRES   REMARKS
GOODLAND       CLEAR     57  55  93 W8        29.98F
HAYS           CLOUDY    64  55  72 W12       29.86F
HILL CITY      CLOUDY    67  60  78 W8        29.88F
RUSSELL        LGT RAIN  67  60  78 S15       29.83F
$$

KSZ061>065-074>080-084>089-290900-
SOUTHWEST KANSAS

CITY           SKY/WX    TMP DP  RH WIND       PRES   REMARKS
DODGE CITY     CLOUDY    66  58  75 W6        29.94F
ELKHART          N/A     63  53  70 W3          N/A
GARDEN CITY    CLEAR     60  58  92 SW6       29.95F
GREAT BEND     CLOUDY    68  61  77 S8        29.89F
LIBERAL        MOCLDY    64  55  72 S7        30.00F
$$

KSZ066>073-081>083-090>101-290900-
SOUTHEAST KANSAS

CITY           SKY/WX    TMP DP  RH WIND       PRES   REMARKS
CHANUTE        CLEAR     71  63  75 SE8       29.86F
COFFEYVILLE    CLEAR     71  63  75 SE6       29.87F
HUTCHINSON     RAIN      68  63  84 W21       29.87F
NEWTON         CLOUDY    70  59  68 SW10      29.90S
PARSONS        CLEAR     71  63  75 CALM      29.88F
WICHITA INTL   CLOUDY    70  63  78 CALM      29.87F
WICHITA JABRA  CLOUDY    69  64  84 W8        29.87F
WINFIELD       CLOUDY    71  68  90 S8        29.87F
$$

KSZ007>012-019>026-033>040-048>060-102>105-290900-
NORTHEAST KANSAS

CITY           SKY/WX    TMP DP  RH WIND       PRES   REMARKS
CONCORDIA      LGT RAIN  70  66  88 SW12      29.83F
EMPORIA        CLOUDY    71  64  78 CALM      29.85F
LAWRENCE       CLEAR     72  64  76 SE6       29.84F
MANHATTAN      CLOUDY    74  64  71 SW13      29.84S
OLATHE IND     CLEAR     71  63  75 S7        29.87F
OLATHE EXE     CLEAR     72  63  73 S7        29.86F
SALINA         LGT RAIN  72  62  71 SW20G28   29.85S
TOPEKA BILLARD PTCLDY    74  65  73 E5        29.83F
TOPEKA FORBES  PTCLDY    72  63  73 SE6       29.84F
$$


USA.gov is the U.S. government's official web portal to all federal, state and local government web resources and services.